CPA459 RCKH-VHHH

Flight info

Callsign CPA459
Flight time N/A
Altitude 34000
Route PARAS2A PARAS T7 WP521 G581 ELATO V522 ABBEY
Aircraft A346/H-SDE2E3FGHIJ3J4J5M1RWXY/LB1D1

Departure

Time 2026-04-24 11:35
Airport Kaohsiung International Airport (RCKH)

Arrival

Time N/A
Airport Hong Kong International Airport (VHHH)
Time Latitude Longitude Altitude Speed Heading
2026-04-24 11:30 22.57639 120.33503 46 ft 0 kts
2026-04-24 11:33 22.57652 120.33503 46 ft 4 kts
2026-04-24 11:33 22.57690 120.33506 46 ft 7 kts
2026-04-24 11:33 22.57739 120.33530 46 ft 9 kts 49°
2026-04-24 11:33 22.57751 120.33601 46 ft 11 kts 98°
2026-04-24 11:34 22.57746 120.33701 47 ft 22 kts 92°
2026-04-24 11:34 22.57741 120.34142 47 ft 93 kts 91°
2026-04-24 11:34 22.57712 120.35057 46 ft 151 kts 91°
2026-04-24 11:34 22.57633 120.36325 295 ft 177 kts 92°
2026-04-24 11:35 22.57565 120.37661 940 ft 179 kts 93°
2026-04-24 11:35 22.57142 120.38921 1629 ft 185 kts 134°
2026-04-24 11:35 22.55972 120.39498 2108 ft 196 kts 179°
2026-04-24 11:35 22.54640 120.39087 2536 ft 210 kts 219°
2026-04-24 11:36 22.53729 120.37801 2992 ft 225 kts 241°
2026-04-24 11:36 22.52952 120.36258 3446 ft 242 kts 241°
2026-04-24 11:36 22.52113 120.34604 3920 ft 259 kts 241°
2026-04-24 11:36 22.51222 120.32860 4571 ft 268 kts 241°
2026-04-24 11:37 22.50318 120.31091 5473 ft 269 kts 241°
2026-04-24 11:37 22.49410 120.29319 6423 ft 268 kts 241°
2026-04-24 11:37 22.48499 120.27547 7285 ft 270 kts 241°
2026-04-24 11:37 22.47580 120.25761 8150 ft 272 kts 241°
2026-04-24 11:38 22.46653 120.23961 9030 ft 275 kts 241°
2026-04-24 11:38 22.45731 120.22172 9901 ft 277 kts 241°
2026-04-24 11:38 22.44773 120.20313 10623 ft 284 kts 241°
2026-04-24 11:38 22.43795 120.18414 11068 ft 301 kts 240°
2026-04-24 11:39 22.42742 120.16374 11482 ft 319 kts 240°
2026-04-24 11:39 22.41625 120.14214 11870 ft 338 kts 240°
2026-04-24 11:39 22.40445 120.11931 12224 ft 356 kts 240°
2026-04-24 11:39 22.39210 120.09544 12674 ft 369 kts 240°
2026-04-24 11:40 22.37947 120.07102 13480 ft 372 kts 240°
2026-04-24 11:40 22.36679 120.04650 14294 ft 374 kts 240°
2026-04-24 11:40 22.35399 120.02178 15014 ft 377 kts 240°
2026-04-24 11:40 22.34114 119.99697 15697 ft 381 kts 240°
2026-04-24 11:41 22.32814 119.97188 16387 ft 384 kts 240°
2026-04-24 11:41 22.31500 119.94650 17059 ft 388 kts 240°
2026-04-24 11:41 22.30176 119.92096 17716 ft 391 kts 240°
2026-04-24 11:41 22.28839 119.89515 18370 ft 394 kts 240°
2026-04-24 11:42 22.27508 119.86950 18924 ft 397 kts 240°
2026-04-24 11:42 22.26151 119.84338 19493 ft 400 kts 240°
2026-04-24 11:42 22.24788 119.81711 20070 ft 402 kts 240°
2026-04-24 11:42 22.23416 119.79065 20643 ft 404 kts 240°
2026-04-24 11:43 22.22115 119.76360 21169 ft 407 kts 245°
2026-04-24 11:43 22.21020 119.73525 21683 ft 410 kts 249°
2026-04-24 11:43 22.20142 119.70576 22210 ft 413 kts 254°
2026-04-24 11:43 22.19447 119.67552 22718 ft 416 kts 256°
2026-04-24 11:44 22.18783 119.64496 23210 ft 419 kts 256°
2026-04-24 11:44 22.18123 119.61423 23684 ft 421 kts 256°
2026-04-24 11:44 22.17458 119.58328 24081 ft 424 kts 256°
2026-04-24 11:44 22.16847 119.55195 24478 ft 427 kts 259°
2026-04-24 11:45 22.16391 119.52013 24871 ft 430 kts 262°
2026-04-24 11:45 22.16099 119.48783 25250 ft 433 kts 265°
2026-04-24 11:45 22.15964 119.45522 25629 ft 436 kts 266°
2026-04-24 11:45 22.15869 119.42238 26001 ft 438 kts 266°
2026-04-24 11:46 22.15778 119.38934 26371 ft 441 kts 266°
2026-04-24 11:46 22.15689 119.35619 26757 ft 443 kts 266°
2026-04-24 11:46 22.15598 119.32278 27148 ft 445 kts 266°
2026-04-24 11:46 22.15508 119.28967 27534 ft 448 kts 266°
2026-04-24 11:47 22.15415 119.25598 27897 ft 451 kts 267°
2026-04-24 11:47 22.15320 119.22203 28255 ft 453 kts 267°
2026-04-24 11:47 22.15225 119.18788 28714 ft 453 kts 267°
2026-04-24 11:47 22.15130 119.15396 29315 ft 451 kts 267°
2026-04-24 11:48 22.15080 119.12018 29915 ft 449 kts 269°
2026-04-24 11:48 22.15175 119.08643 30411 ft 448 kts 271°
2026-04-24 11:48 22.15417 119.05283 30870 ft 447 kts 274°
2026-04-24 11:48 22.15788 119.01953 31353 ft 446 kts 275°
2026-04-24 11:49 22.16186 118.98637 31865 ft 444 kts 275°
2026-04-24 11:49 22.16584 118.95337 32384 ft 442 kts 275°
2026-04-24 11:49 22.16977 118.92052 32850 ft 441 kts 275°
2026-04-24 11:49 22.17369 118.88771 33327 ft 440 kts 275°
2026-04-24 11:50 22.17760 118.85483 33755 ft 441 kts 275°
2026-04-24 11:50 22.18152 118.82186 33994 ft 443 kts 275°
2026-04-24 11:50 22.18930 118.75630 33997 ft 443 kts 275°
2026-04-24 11:51 22.19713 118.69024 33995 ft 443 kts 275°